Weather History for Ubon Ratchathani, Thailand

Change the Weather History Date:

Thursday, November 21, 2013

  Actual Average Record
Temperature  
Mean Temperature 80 °F -  
Max Temperature 91 °F 86 °F - ()
Min Temperature 68 °F 64 °F - ()
Cooling Degree Days 14    
Growing Degree Days 30 (Base 50)    
Moisture  
Dew Point 67 °F    
Average Humidity 67    
Maximum Humidity 88    
Minimum Humidity 38    
Precipitation  
Precipitation 0.00 in 0.01 in - ()
Sea Level Pressure  
Sea Level Pressure 29.84 in    
Wind  
Wind Speed 3 mph ()    
Max Wind Speed 8 mph    
Max Gust Speed -    
Visibility 5.3 miles    
Events      
T = Trace of Precipitation, MM = Missing Value Source: Averaged Metar Reports

Daily Weather History Graph

Daily Weather History Graph

Search for Another Location

Airport:

Trip Planner

Search our weather history database for the weather conditions in past years. The results will help you decide how hot, cold, wet, or windy it might be!

Date:

Astronomy

Nov. 21, 2013 Rise Set
Actual Time 6:05 AM ICT 5:27 PM ICT
Civil Twilight 5:42 AM ICT 5:50 PM ICT
Nautical Twilight 5:16 AM ICT 6:16 PM ICT
Astronomical Twilight 4:50 AM ICT 6:42 PM ICT
Moon 8:32 PM ICT (11/21) 8:50 AM ICT (11/21)
Length of Visible Light 12h 07m
Length of Day
11h 22m
Waning Gibbous, 88% of the Moon is Illuminated
Nov 21
Waning Gibbous
Nov 26
Last Quarter
Dec 3
New
Dec 9
First Quarter
Dec 17
Full

Hourly Weather History & Observations

Time (ICT) Temp. Heat Index Dew Point Humidity Pressure Visibility Wind Dir Wind Speed Gust Speed Precip Events Conditions
12:00 AM 73.4 °F - 66.2 °F 78% 29.86 in 5.6 mi NNE 3.5 mph - N/A   Unknown
1:00 AM 72 °F - 67 °F 79% 29.84 in 6 mi North 4.6 mph - -   Mist
1:00 AM 71.6 °F - 66.2 °F 83% 29.86 in 5.6 mi North 4.6 mph - N/A   Unknown
3:00 AM 71.6 °F - 66.2 °F 83% 29.83 in 5.0 mi NNE 4.6 mph - N/A   Unknown
4:00 AM 71 °F - 66 °F 81% 29.84 in 5 mi NNE 3.5 mph - -   Mist
4:00 AM 71.6 °F - 66.2 °F 83% 29.83 in 5.0 mi NNE 3.5 mph - N/A   Unknown
5:00 AM 69.8 °F - 66.2 °F 88% 29.83 in 5.0 mi NNE 2.3 mph - N/A   Unknown
6:00 AM 69.8 °F - 66.2 °F 88% 29.86 in 5.6 mi NNE 2.3 mph - N/A   Unknown
6:30 AM 69.8 °F - 66.2 °F 88% 29.86 in 5.6 mi NE 2.3 mph - N/A   Unknown
7:00 AM 69 °F - 66 °F 86% 29.88 in 6 mi NNE 2.3 mph - -   Mist
7:00 AM 69.8 °F - 66.2 °F 88% 29.86 in 5.6 mi NNE 2.3 mph - N/A   Unknown
8:00 AM 73.4 °F - 66.2 °F 78% 29.89 in 5.6 mi NNE 4.6 mph - N/A   Unknown
9:00 AM 77.0 °F - 66.2 °F 69% 29.89 in 5.6 mi NNE 5.8 mph - N/A   Unknown
10:00 AM 79 °F - 67 °F 57% 29.91 in 6 mi North 4.6 mph - -   Mist
10:00 AM 78.8 °F - 66.2 °F 65% 29.89 in 5.6 mi North 4.6 mph - N/A   Unknown
11:00 AM 80.6 °F 83.2 °F 68.0 °F 65% 29.86 in 5.6 mi NE 8.1 mph - N/A   Unknown
12:00 PM 86.0 °F 89.4 °F 68.0 °F 55% 29.83 in 5.6 mi ENE 4.6 mph - N/A   Unknown
1:00 PM 87 °F - 67 °F 41% 29.82 in 6 mi NE 4.6 mph - -   Haze
1:00 PM 86.0 °F 88.2 °F 66.2 °F 51% 29.80 in 5.6 mi NE 4.6 mph - N/A   Mostly Cloudy
2:00 PM 87.8 °F 90.4 °F 66.2 °F 49% 29.77 in 5.6 mi North 6.9 mph - N/A   Mostly Cloudy
3:00 PM 89.6 °F 92.2 °F 66.2 °F 46% 29.74 in 5.6 mi NNE 3.5 mph - N/A   Mostly Cloudy
4:00 PM 89 °F - 67 °F 38% 29.78 in 6 mi NNE 3.5 mph - -   Haze
4:00 PM 89.6 °F 92.2 °F 66.2 °F 46% 29.77 in 5.6 mi NNE 3.5 mph - N/A   Mostly Cloudy
5:00 PM 87.8 °F 91.4 °F 68.0 °F 52% 29.77 in 5.0 mi NE 4.6 mph - N/A   Mostly Cloudy
5:30 PM 86.0 °F 89.4 °F 68.0 °F 55% 29.80 in 5.0 mi North 4.6 mph - N/A   Mostly Cloudy
6:00 PM 84.2 °F 87.3 °F 68.0 °F 58% 29.80 in 5.0 mi North 2.3 mph - N/A   Mostly Cloudy
7:00 PM 82 °F - 69 °F 57% 29.84 in 5 mi NNE 3.5 mph - -   Mist
7:00 PM 82.4 °F 86.3 °F 69.8 °F 66% 29.83 in 5.0 mi NNE 3.5 mph - N/A   Mostly Cloudy
8:00 PM 78.8 °F - 68.0 °F 69% 29.86 in 5.0 mi NNE 3.5 mph - N/A   Mostly Cloudy
9:00 PM 78.8 °F - 68.0 °F 69% 29.86 in 4.3 mi NNE 2.3 mph - N/A   Unknown
10:00 PM 76 °F - 68 °F 69% 29.90 in 4 mi North 2.3 mph - -   Mist
10:00 PM 77.0 °F - 68.0 °F 74% 29.89 in 4.3 mi North 2.3 mph - N/A   Unknown